San Sebastian, Spain

12:26 AM CEST on August 31, 2016 (GMT +0200)
San Sebastian

Weather History for LESO - September, 2013

Change the Weather History Date:

Monday, September 2, 2013

  Actual Average Record
Temperature  
Mean Temperature 66 °F -  
Max Temperature 73 °F 72 °F 86 °F (2005)
Min Temperature 60 °F 59 °F 51 °F (2012)
Cooling Degree Days 2    
Growing Degree Days 16 (Base 50)    
Moisture  
Dew Point 59 °F    
Average Humidity 73    
Maximum Humidity 94    
Minimum Humidity 53    
Precipitation  
Precipitation 0.00 in - - ()
Sea Level Pressure  
Sea Level Pressure 30.27 in    
Wind  
Wind Speed 3 mph ()    
Max Wind Speed 7 mph    
Max Gust Speed -    
Visibility 6.2 miles    
Events      
Averages and records for this station are not official NWS values.
T = Trace of Precipitation, MM = Missing Value Source: Averaged Metar Reports

Daily Weather History Graph

Daily Weather History Graph

Search for Another Location

Airport or City:

Trip Planner

Search our weather history database for the weather conditions in past years. The results will help you decide how hot, cold, wet, or windy it might be!

Date:

Astronomy

Sep. 02, 2013 Rise Set
Actual Time 7:32 AM CEST 8:40 PM CEST
Civil Twilight 7:02 AM CEST 9:09 PM CEST
Nautical Twilight 6:27 AM CEST 9:44 PM CEST
Astronomical Twilight 5:50 AM CEST 10:21 PM CEST
Moon 4:32 AM CEST (9/2) 6:47 PM CEST (9/2)
Length of Visible Light 14h 06m
Length of Day
13h 08m
Waning Crescent, 9% of the Moon is Illuminated
Sep 2
Waning Crescent
Sep 5
New
Sep 12
First Quarter
Sep 19
Full
Sep 27
Last Quarter

Hourly Weather History & Observations

Time (CEST) Temp. Dew Point Humidity Pressure Visibility Wind Dir Wind Speed Gust Speed Precip Events Conditions
5:30 AM 62.6 °F 60.8 °F 94% 30.27 in - Variable 2.3 mph - N/A   Clear
6:00 AM 62.6 °F 60.8 °F 94% 30.27 in 6.2 mi Variable 2.3 mph - N/A   Partly Cloudy
6:30 AM 62.6 °F 60.8 °F 94% 30.27 in 6.2 mi Variable 2.3 mph - N/A   Partly Cloudy
7:00 AM 60.8 °F 59.0 °F 94% 30.27 in 6.2 mi Calm Calm - N/A   Partly Cloudy
7:30 AM 60.8 °F 59.0 °F 94% 30.27 in 6.2 mi Variable 2.3 mph - N/A   Partly Cloudy
8:00 AM 60.8 °F 59.0 °F 94% 30.27 in 6.2 mi Variable 2.3 mph - N/A   Partly Cloudy
8:30 AM 62.6 °F 60.8 °F 94% 30.27 in 6.2 mi Variable 2.3 mph - N/A   Scattered Clouds
9:00 AM 62.6 °F 60.8 °F 94% 30.27 in 6.2 mi Variable 2.3 mph - N/A   Mostly Cloudy
9:30 AM 62.6 °F 60.8 °F 94% 30.30 in 6.2 mi Variable 1.2 mph - N/A   Mostly Cloudy
10:00 AM 66.2 °F 62.6 °F 88% 30.30 in 6.2 mi Calm Calm - N/A   Mostly Cloudy
10:30 AM 68.0 °F 62.6 °F 83% 30.30 in 6.2 mi Calm Calm - N/A   Mostly Cloudy
11:00 AM 69.8 °F 62.6 °F 78% 30.30 in 6.2 mi Calm Calm - N/A   Partly Cloudy
11:30 AM 69.8 °F 64.4 °F 83% 30.30 in 6.2 mi NNE 6.9 mph - N/A   Partly Cloudy
12:00 PM 69.8 °F 64.4 °F 83% 30.30 in 6.2 mi NNE 6.9 mph - N/A   Scattered Clouds
12:30 PM 69.8 °F 62.6 °F 78% 30.30 in 6.2 mi NNE 6.9 mph - N/A   Partly Cloudy
1:00 PM 69.8 °F 60.8 °F 73% 30.30 in 6.2 mi North 6.9 mph - N/A   Partly Cloudy
1:30 PM 71.6 °F 57.2 °F 60% 30.27 in 6.2 mi NNW 4.6 mph - N/A   Partly Cloudy
2:00 PM 71.6 °F 55.4 °F 57% 30.27 in 6.2 mi NNW 5.8 mph - N/A   Partly Cloudy
2:30 PM 71.6 °F 55.4 °F 57% 30.27 in 6.2 mi NNW 5.8 mph - N/A   Partly Cloudy
3:00 PM 71.6 °F 57.2 °F 60% 30.27 in 6.2 mi NNW 4.6 mph - N/A   Partly Cloudy
3:30 PM 71.6 °F 57.2 °F 60% 30.27 in - NNW 5.8 mph - N/A   Clear
4:00 PM 71.6 °F 57.2 °F 60% 30.27 in - North 5.8 mph - N/A   Clear
4:30 PM 71.6 °F 57.2 °F 60% 30.27 in - North 4.6 mph - N/A   Clear
5:00 PM 71.6 °F 55.4 °F 57% 30.27 in 6.2 mi North 4.6 mph - N/A   Partly Cloudy
5:30 PM 73.4 °F 55.4 °F 53% 30.24 in - Variable 2.3 mph - N/A   Clear
6:00 PM 71.6 °F 55.4 °F 57% 30.24 in - NNE 6.9 mph - N/A   Clear
6:30 PM 71.6 °F 55.4 °F 57% 30.24 in - North 4.6 mph - N/A   Clear
7:00 PM 71.6 °F 57.2 °F 60% 30.24 in - Variable 2.3 mph - N/A   Clear
7:30 PM 71.6 °F 53.6 °F 53% 30.24 in - Variable 2.3 mph - N/A   Clear
8:00 PM 69.8 °F 53.6 °F 56% 30.24 in - Calm Calm - N/A   Clear
8:30 PM 69.8 °F 55.4 °F 60% 30.24 in - Calm Calm - N/A   Clear
9:00 PM 68.0 °F 57.2 °F 68% 30.24 in - Calm Calm - N/A   Clear
9:30 PM 64.4 °F 57.2 °F 77% 30.27 in - South 3.5 mph - N/A   Clear